EW0867 Weather Reports


Display with metric or nautical units.
time (UTC)temp
F
wind
direction
speed
MPH
gust
MPH
rain 1hr
in
rain 24hr
in
rain mn
in
humidity
%
barometer
mb
20260507210450 63 238 0.0 0.0 0.00 0.63 0.13 73 1013.9
20260507205443 63 231 0.0 0.0 0.00 0.67 0.13 72 1013.9
20260507204447 64 227 0.0 0.0 0.00 0.67 0.13 72 1013.8
20260507202948 64 234 0.0 0.0 0.00 0.67 0.13 70 1013.5
20260507202509 65 234 0.0 0.0 0.00 0.67 0.13 70 1013.6
20260507201457 65 190 0.0 6.0 0.00 0.67 0.13 69 1013.6
20260507200451 65 6 0.0 0.0 0.00 0.67 0.13 68 1013.4
20260507195953 65 6 0.0 0.0 0.00 0.67 0.13 68 1013.3
20260507195021 65 13 0.0 0.0 0.00 0.75 0.13 67 1013.2
20260507194505 65 13 0.0 0.0 0.00 0.75 0.13 66 1013.2
20260507194009 65 15 0.0 0.0 0.00 0.75 0.09 66 1013.1
20260507193510 65 242 0.0 0.0 0.00 0.75 0.09 65 1012.9
20260507192953 65 242 0.0 0.0 0.00 0.75 0.09 64 1012.8
20260507192500 66 242 0.0 0.0 0.00 0.75 0.09 64 1012.7
20260507192006 66 242 0.0 0.0 0.00 0.75 0.09 63 1012.7
20260507191512 66 242 0.0 0.0 0.00 0.75 0.09 63 1012.7
20260507191355 66 242 0.0 0.0 0.00 0.75 0.09 63 1012.6
20260507190859 66 242 0.0 0.0 0.00 0.75 0.09 62 1012.5
20260507190403 67 242 0.0 0.0 0.00 0.75 0.09 61 1012.5
20260507185923 67 242 0.0 0.0 0.00 0.79 0.09 61 1012.4
20260507185407 67 242 0.0 0.0 0.00 0.79 0.09 60 1012.4
20260507184907 68 242 0.0 0.0 0.00 0.79 0.09 59 1012.3
20260507184409 68 242 0.0 0.0 0.00 0.79 0.09 59 1012.3
20260507183909 68 242 0.0 0.0 0.00 0.79 0.09 58 1012.3
20260507183431 68 242 0.0 0.0 0.00 0.79 0.09 57 1012.3
20260507182910 68 242 0.0 0.0 0.00 0.79 0.09 56 1012.2
20260507182431 68 242 0.0 0.0 0.00 0.79 0.09 56 1012.2
20260507181910 68 242 0.0 0.0 0.00 0.79 0.09 55 1012.1
20260507181413 69 48 0.0 0.0 0.00 0.79 0.09 55 1012.1
20260507180938 69 46 0.0 0.0 0.00 0.79 0.09 55 1012.1
20260507180421 69 44 0.0 0.0 0.00 0.79 0.09 54 1012.0
20260507175921 69 44 0.0 0.0 0.00 0.87 0.09 54 1011.9
20260507175427 69 44 0.0 0.0 0.00 0.87 0.09 54 1011.8
20260507174928 70 150 0.0 0.0 0.00 0.87 0.09 54 1011.8
20260507174428 70 136 0.0 0.0 0.00 0.87 0.09 55 1011.8
20260507173948 70 136 0.0 0.0 0.00 0.87 0.09 55 1011.7
20260507173448 70 142 0.0 0.0 0.00 0.87 0.09 54 1011.7
20260507172928 69 146 0.0 0.0 0.00 0.87 0.09 54 1011.8
20260507172415 70 310 0.0 0.0 0.00 0.87 0.09 53 1011.7
20260507171917 70 247 0.0 0.0 0.00 0.87 0.09 53 1011.7
20260507171418 70 247 0.0 0.0 0.00 0.87 0.09 53 1011.7
20260507170920 70 34 0.0 1.0 0.00 0.87 0.09 53 1011.7
20260507170420 70 214 0.0 1.0 0.00 0.87 0.09 53 1011.7
20260507165920 70 221 0.0 0.0 0.00 1.02 0.09 54 1011.7
20260507165420 70 2 0.0 0.0 0.00 1.02 0.09 54 1011.6
20260507164921 70 188 0.0 0.0 0.00 1.02 0.09 54 1011.6
20260507164441 70 188 0.0 0.0 0.00 1.02 0.09 54 1011.6
20260507163922 70 186 0.0 0.0 0.00 1.02 0.09 54 1011.6
20260507163425 70 146 0.0 0.0 0.00 1.02 0.09 54 1011.6
20260507162910 70 165 0.0 0.0 0.00 1.02 0.09 55 1011.6
20260507162414 70 169 0.0 4.0 0.00 1.02 0.09 54 1011.5
20260507161920 70 252 0.0 4.0 0.00 1.02 0.09 55 1011.5
20260507161443 70 3 0.0 0.0 0.00 1.02 0.09 54 1011.5
20260507160907 70 11 0.0 0.0 0.00 1.02 0.09 54 1011.6
20260507160412 70 188 0.0 0.0 0.00 1.02 0.09 54 1011.5
20260507155932 70 232 0.0 0.0 0.00 1.22 0.09 55 1011.5
20260507155410 70 229 0.0 0.0 0.00 1.22 0.09 55 1011.5
20260507154911 70 160 0.0 0.0 0.00 1.22 0.09 54 1011.4
20260507154411 70 166 0.0 0.0 0.00 1.22 0.09 54 1011.6
20260507153912 70 222 0.0 0.0 0.00 1.22 0.09 53 1011.6
20260507153413 70 130 0.0 0.0 0.00 1.22 0.09 53 1011.6
20260507152914 70 355 0.0 0.0 0.00 1.22 0.09 54 1011.7
20260507152414 69 148 0.0 3.0 0.00 1.22 0.09 54 1011.7
20260507151919 69 146 0.0 3.0 0.00 1.22 0.09 53 1011.7
20260507151420 69 132 0.0 0.0 0.00 1.22 0.09 56 1011.7
20260507150928 69 249 0.0 0.0 0.00 1.22 0.09 56 1011.7
20260507150429 69 163 0.0 0.0 0.00 1.22 0.09 57 1011.7
20260507145911 69 24 0.0 0.0 0.00 1.42 0.09 56 1011.8
20260507145410 70 358 0.0 0.0 0.00 1.42 0.09 56 1011.8
20260507144931 70 223 0.0 3.0 0.00 1.42 0.09 55 1011.8
20260507144411 70 211 0.0 2.0 0.00 1.42 0.09 56 1011.8
20260507143916 70 206 0.0 2.0 0.00 1.42 0.09 55 1011.8
20260507143417 70 163 0.0 0.0 0.00 1.42 0.09 55 1011.8
20260507142921 69 236 0.0 0.0 0.00 1.42 0.09 58 1011.8
20260507142442 69 176 0.0 8.0 0.00 1.42 0.09 58 1011.9
20260507141926 68 358 0.0 2.0 0.00 1.42 0.09 59 1011.8
20260507141427 68 7 0.0 1.0 0.00 1.42 0.09 58 1011.9
20260507140928 69 7 0.0 1.0 0.00 1.42 0.09 58 1012.0
20260507140412 69 259 0.0 0.0 0.00 1.42 0.09 58 1012.1
20260507135912 69 193 0.0 0.0 0.00 1.65 0.09 58 1012.1
20260507135436 69 241 0.0 5.0 0.00 1.65 0.09 59 1012.1
20260507134917 69 38 1.0 5.0 0.00 1.65 0.09 58 1012.2
20260507134417 69 275 0.0 0.0 0.00 1.65 0.09 58 1012.2
20260507133938 68 319 0.0 0.0 0.00 1.65 0.09 59 1012.2
20260507133417 69 211 0.0 5.0 0.00 1.65 0.09 59 1012.2
20260507132919 69 221 0.0 5.0 0.00 1.65 0.09 58 1012.3
20260507132419 69 290 0.0 1.0 0.00 1.65 0.09 58 1012.3
20260507131921 69 200 0.0 4.0 0.00 1.65 0.09 58 1012.3
20260507131422 68 138 0.0 7.0 0.00 1.65 0.09 59 1012.4
20260507130907 68 221 0.0 2.0 0.00 1.65 0.09 60 1012.4
20260507130410 68 249 0.0 2.0 0.00 1.65 0.09 60 1012.5
20260507125914 68 221 0.0 4.0 0.00 1.77 0.09 60 1012.5
20260507125435 68 237 0.0 6.0 0.00 1.77 0.09 60 1012.5
20260507124920 68 130 0.0 6.0 0.00 1.77 0.09 60 1012.5
20260507124420 68 234 0.0 1.0 0.04 1.77 0.09 59 1012.6
20260507123925 68 7 0.0 6.0 0.04 1.77 0.09 59 1012.6
20260507123426 67 219 0.0 6.0 0.04 1.77 0.09 61 1012.7
20260507122927 67 16 1.0 6.0 0.04 1.77 0.09 62 1012.8
20260507122428 67 24 0.0 6.0 0.04 1.77 0.09 61 1012.7
20260507121929 68 206 0.0 7.0 0.04 1.77 0.09 62 1012.8
20260507121412 68 229 0.0 7.0 0.04 1.77 0.09 62 1012.8
20260507120917 68 188 0.0 0.0 0.04 1.77 0.09 63 1012.8
20260507120420 67 34 0.0 1.0 0.04 1.77 0.09 63 1012.8
20260507115942 66 206 0.0 8.0 0.04 1.85 0.09 64 1012.8
20260507115425 66 310 0.0 8.0 0.04 1.85 0.09 65 1012.9
20260507114910 66 356 0.0 11.0 0.08 1.85 0.09 65 1012.9
20260507114417 66 246 1.0 11.0 0.04 1.81 0.09 65 1012.9
20260507113919 66 34 1.0 11.0 0.04 1.81 0.09 65 1013.0
20260507113420 65 15 0.0 9.0 0.04 1.81 0.09 65 1013.0
20260507112908 66 19 1.0 9.0 0.04 1.81 0.09 64 1013.1
20260507112411 66 19 0.0 6.0 0.04 1.81 0.09 66 1013.1
20260507111915 66 221 0.0 6.0 0.04 1.81 0.09 66 1013.2
20260507111416 65 150 0.0 11.0 0.04 1.81 0.09 65 1013.2
20260507110921 65 14 1.0 11.0 0.04 1.81 0.09 65 1013.2
20260507110422 65 24 1.0 5.0 0.04 1.81 0.09 65 1013.3
20260507105927 65 355 0.0 5.0 0.04 1.81 0.09 67 1013.4
20260507105426 65 7 1.0 10.0 0.04 1.89 0.09 67 1013.4
20260507104912 65 24 3.0 10.0 0.00 1.85 0.08 66 1013.4
20260507104435 66 232 0.0 4.0 0.00 1.85 0.08 68 1013.4
20260507103915 65 357 0.0 4.0 0.00 1.85 0.08 65 1013.5
20260507103436 66 220 0.0 3.0 0.04 1.85 0.08 65 1013.6
20260507102919 66 238 0.0 3.0 0.04 1.85 0.08 65 1013.7
20260507102419 65 213 0.0 0.0 0.04 1.85 0.08 66 1013.6
20260507101921 65 105 0.0 5.0 0.04 1.85 0.08 66 1013.6
20260507101442 65 236 1.0 5.0 0.04 1.85 0.08 66 1013.7
20260507100927 65 357 0.0 0.0 0.04 1.85 0.08 67 1013.7
20260507100426 65 230 0.0 5.0 0.04 1.85 0.08 66 1013.6
20260507095927 65 263 0.0 5.0 0.08 1.85 0.08 67 1013.7
20260507095429 64 304 0.0 0.0 0.08 1.85 0.08 69 1013.7
20260507094929 64 227 0.0 0.0 0.08 1.85 0.08 68 1013.6
20260507094429 63 239 0.0 1.0 0.08 1.85 0.08 68 1013.7
20260507093910 63 327 0.0 1.0 0.08 1.85 0.08 68 1013.7
20260507093414 63 229 0.0 3.0 0.04 1.81 0.07 69 1013.7
20260507092935 63 34 0.0 3.0 0.04 1.81 0.07 69 1013.6
20260507092414 63 24 0.0 0.0 0.04 1.81 0.07 70 1013.6
20260507091915 62 335 0.0 3.0 0.04 1.81 0.07 71 1013.6
20260507091436 62 24 0.0 0.0 0.04 1.81 0.07 71 1013.6
20260507090936 62 338 0.0 0.0 0.04 1.81 0.07 72 1013.6
20260507090416 62 348 0.0 3.0 0.04 1.81 0.07 72 1013.6
20260507085920 62 13 0.0 3.0 0.00 1.77 0.06 71 1013.6
20260507085421 62 338 0.0 0.0 0.00 1.77 0.06 75 1013.6
20260507084930 61 217 0.0 0.0 0.00 1.77 0.06 77 1013.6
20260507084430 60 7 0.0 0.0 0.00 1.77 0.06 81 1013.6
20260507083914 60 7 0.0 0.0 0.00 1.77 0.06 81 1013.5
20260507083414 60 13 0.0 0.0 0.00 1.77 0.06 84 1013.6
20260507082916 60 4 0.0 0.0 0.00 1.77 0.06 85 1013.6
20260507082437 59 1 0.0 0.0 0.04 1.77 0.06 85 1013.6
20260507081917 58 360 0.0 0.0 0.04 1.77 0.06 85 1013.6
20260507081417 58 354 0.0 0.0 0.04 1.77 0.06 86 1013.6
20260507080926 57 349 0.0 0.0 0.04 1.77 0.06 86 1013.5
20260507080429 57 290 0.0 0.0 0.04 1.77 0.06 87 1013.6
20260507075911 57 176 0.0 0.0 0.04 1.77 0.06 87 1013.6
20260507075450 57 177 0.0 0.0 0.04 1.77 0.06 88 1013.5
20260507074950 57 234 0.0 0.0 0.04 1.77 0.06 88 1013.6
20260507074410 56 10 0.0 0.0 0.04 1.77 0.06 88 1013.4
20260507073911 56 9 0.0 0.0 0.08 1.77 0.06 88 1013.3
20260507073412 56 9 0.0 0.0 0.08 1.77 0.06 89 1013.3
20260507072913 56 9 0.0 0.0 0.08 1.77 0.06 90 1013.3
20260507072435 56 3 0.0 0.0 0.04 1.73 0.06 90 1013.2
20260507071935 55 358 0.0 0.0 0.04 1.73 0.06 90 1013.2
20260507071415 55 358 0.0 0.0 0.04 1.73 0.06 90 1013.2
20260507070919 55 358 0.0 0.0 0.04 1.73 0.06 90 1013.3
20260507070439 55 358 0.0 0.0 0.04 1.73 0.06 91 1013.3
20260507065920 55 356 0.0 0.0 0.04 1.73 0.06 90 1013.2
20260507065420 55 356 0.0 0.0 0.04 1.73 0.06 91 1013.2
20260507064921 55 356 0.0 0.0 0.04 1.73 0.06 91 1013.1
20260507064425 55 354 0.0 0.0 0.04 1.73 0.06 91 1013.1
20260507063926 55 354 0.0 0.0 0.00 1.69 0.05 91 1013.0
20260507063426 55 253 0.0 0.0 0.00 1.69 0.05 91 1013.0
20260507062927 55 252 0.0 0.0 0.00 1.69 0.05 91 1012.9
20260507062428 55 252 0.0 0.0 0.04 1.69 0.05 91 1012.9
20260507061930 55 252 0.0 0.0 0.04 1.69 0.05 91 1012.9
20260507061410 54 329 0.0 0.0 0.04 1.69 0.05 91 1012.8
20260507060914 54 331 0.0 0.0 0.04 1.69 0.05 92 1012.8
20260507060415 54 331 0.0 0.0 0.04 1.69 0.05 92 1012.7
20260507055920 54 331 0.0 0.0 0.04 1.69 0.05 92 1012.7
20260507055424 54 354 0.0 0.0 0.04 1.69 0.05 92 1012.7
20260507054910 54 354 0.0 0.0 0.08 1.69 0.05 92 1012.7
20260507054410 54 354 0.0 0.0 0.08 1.69 0.05 92 1012.6
20260507053936 54 354 0.0 0.0 0.08 1.69 0.05 92 1012.6
20260507053416 54 354 0.0 0.0 0.08 1.69 0.05 92 1012.4
20260507052941 54 354 0.0 0.0 0.08 1.69 0.05 92 1012.3
20260507052420 54 354 0.0 0.0 0.04 1.65 0.04 92 1012.3
20260507051921 54 354 0.0 0.0 0.04 1.65 0.04 92 1012.3
20260507051422 54 354 0.0 0.0 0.04 1.65 0.04 91 1012.3
20260507050906 54 354 0.0 0.0 0.04 1.65 0.04 91 1012.2
20260507050410 54 354 0.0 0.0 0.04 1.65 0.04 91 1012.1
20260507045911 54 354 0.0 0.0 0.04 1.65 0.04 91 1012.0
20260507045432 54 354 0.0 0.0 0.04 1.65 0.04 91 1012.0
20260507044912 53 354 0.0 0.0 0.00 1.61 0.03 91 1011.9
20260507044412 53 354 0.0 0.0 0.00 1.61 0.03 91 1011.8
20260507043918 53 354 0.0 0.0 0.00 1.61 0.03 91 1011.8
20260507043426 53 354 0.0 0.0 0.04 1.61 0.03 91 1011.7
20260507042912 53 352 0.0 0.0 0.04 1.61 0.03 91 1011.8
20260507042431 53 352 0.0 0.0 0.04 1.61 0.03 91 1011.7
20260507041912 53 352 0.0 0.0 0.04 1.61 0.03 90 1011.7
20260507041413 53 352 0.0 0.0 0.04 1.61 0.03 90 1011.6
20260507040935 53 352 0.0 0.0 0.04 1.61 0.03 90 1011.6
20260507040435 53 352 0.0 0.0 0.04 1.61 0.03 90 1011.6
20260507035915 53 352 0.0 0.0 0.04 1.65 0.03 90 1011.6
20260507035435 53 356 0.0 0.0 0.04 1.65 0.03 90 1011.5
20260507034919 53 354 0.0 1.0 0.08 1.65 0.03 90 1011.6
20260507034419 53 354 0.0 1.0 0.08 1.65 0.03 90 1011.5
20260507033941 53 338 0.0 0.0 0.08 1.65 0.03 89 1011.5
20260507033427 53 344 0.0 0.0 0.04 1.61 0.02 89 1011.5
20260507032928 54 344 0.0 0.0 0.04 1.61 0.02 89 1011.5
20260507032428 54 345 0.0 0.0 0.04 1.61 0.02 89 1011.5
20260507031949 54 358 0.0 0.0 0.04 1.61 0.02 89 1011.4
20260507031429 54 358 0.0 0.0 0.04 1.61 0.02 89 1011.5
20260507030914 54 7 0.0 0.0 0.04 1.61 0.02 89 1011.4
20260507030414 54 3 0.0 0.0 0.04 1.61 0.02 89 1011.4
20260507025935 54 347 0.0 0.0 0.04 1.65 0.02 89 1011.5
20260507025438 54 347 0.0 0.0 0.04 1.65 0.02 89 1011.5
20260507024918 54 344 0.0 0.0 0.00 1.61 0.02 89 1011.4
20260507024439 54 332 0.0 0.0 0.00 1.61 0.02 89 1011.4
20260507023920 54 18 0.0 0.0 0.00 1.61 0.02 89 1011.4
20260507023420 54 357 0.0 0.0 0.00 1.61 0.02 90 1011.4
20260507022924 54 358 0.0 0.0 0.04 1.61 0.02 90 1011.3
20260507022424 54 5 0.0 0.0 0.04 1.61 0.02 90 1011.4
20260507021925 54 338 0.0 0.0 0.04 1.61 0.02 90 1011.3
20260507021426 54 327 0.0 0.0 0.04 1.61 0.02 90 1011.3
20260507020910 54 343 0.0 5.0 0.04 1.61 0.02 90 1011.3
20260507020431 54 346 0.0 5.0 0.04 1.61 0.02 90 1011.3
20260507015911 54 344 0.0 0.0 0.04 1.65 0.02 90 1011.3
20260507015410 54 360 0.0 0.0 0.08 1.65 0.02 91 1011.2
20260507014915 54 360 0.0 0.0 0.08 1.65 0.02 90 1011.1
20260507014416 54 13 0.0 0.0 0.08 1.65 0.02 90 1011.1
20260507013917 55 14 0.0 0.0 0.08 1.65 0.02 90 1011.1
20260507013417 55 15 0.0 0.0 0.08 1.65 0.02 90 1011.1
20260507012919 55 15 0.0 0.0 0.04 1.61 0.01 89 1011.1
20260507012419 55 15 0.0 0.0 0.04 1.61 0.01 89 1011.2
20260507011920 55 15 0.0 0.0 0.04 1.61 0.01 88 1011.2
20260507011441 55 15 0.0 0.0 0.04 1.61 0.01 88 1011.3
20260507010921 55 15 0.0 0.0 0.04 1.61 0.01 88 1011.3
20260507010427 55 15 0.0 0.0 0.04 1.61 0.01 87 1011.3
20260507005932 55 15 0.0 0.0 0.04 1.61 0.01 87 1011.3
20260507005437 55 15 0.0 0.0 0.00 1.61 0.00 86 1011.3
20260507004941 56 15 0.0 0.0 0.00 1.61 0.00 85 1011.3
20260507004427 56 15 0.0 0.0 0.04 1.61 0.00 85 1011.4
20260507003935 56 15 0.0 0.0 0.04 1.61 0.00 84 1011.4
20260507003440 56 15 0.0 0.0 0.04 1.61 0.00 83 1011.5
20260507003002 56 15 0.0 0.0 0.04 1.61 0.00 83 1011.5
20260507002444 56 288 0.0 0.0 0.04 1.61 0.00 82 1011.5
20260507001947 56 352 0.0 0.0 0.04 1.61 0.00 82 1011.4
20260507001448 56 352 0.0 0.0 0.04 1.61 0.00 81 1011.3
20260507000949 57 352 0.0 0.0 0.04 1.61 0.02 81 1011.3
20260507000453 57 352 0.0 0.0 0.08 1.61 0.02 80 1011.2
20260506235953 57 352 0.0 0.0 0.08 1.61 0.02 80 1011.2
20260506235435 57 352 0.0 0.0 0.08 1.65 0.02 80 1011.2
20260506234956 57 350 0.0 0.0 0.08 1.65 0.02 80 1011.2
20260506234435 57 2 0.0 0.0 0.04 1.61 0.02 80 1011.2
20260506233937 57 15 0.0 0.0 0.04 1.61 0.02 80 1011.2
20260506233442 57 15 0.0 0.0 0.04 1.61 0.02 80 1011.2
20260506232942 57 17 0.0 0.0 0.04 1.61 0.02 80 1011.1
20260506232443 57 17 0.0 0.0 0.04 1.61 0.02 80 1011.0
20260506232007 57 29 0.0 0.0 0.04 1.61 0.02 80 1011.0
20260506231450 57 61 0.0 0.0 0.04 1.61 0.02 80 1011.0
20260506231011 57 62 0.0 0.0 0.04 1.61 0.02 80 1010.8
20260506225949 57 356 0.0 0.0 0.00 1.57 0.01 80 1010.7
20260506220510 57 354 0.0 0.0 0.08 1.65 0.01 80 1010.6